Regional Weather Roundup
Issued by NWS Albany, NY

Home | Current Version | Previous Version | Text Only | Print | Product List | Glossary On
Versions: 1 2 3 4 5 6 7 8 9 10 11 12 13 14 15 16 17 18 19 20 21 22 23 24 25 26 27
000
ASUS41 KALY 201410
RWRALY

NEW YORK STATE HOURLY WEATHER ROUNDUP
NATIONAL WEATHER SERVICE ALBANY NY
1000 AM EDT THU JUL 20 2017

NOTE: "FAIR" INDICATES FEW OR NO CLOUDS BELOW 12,000 FEET WITH NO
SIGNIFICANT WEATHER AND/OR NO OBSTRUCTIONS TO VISIBILITY.

NYZ032-033-038>043-046>054-057>066-NYZ062>081-082-084-201500-
EAST


CITY           SKY/WX    TMP DP  RH WIND       PRES   REMARKS
ALBANY         PTSUNNY   80  67  64 CALM      29.97S
GLENS FALLS    PTSUNNY   75  69  81 S5        29.96S
POUGHKEEPSIE   MOSUNNY   82  69  64 VRB3      29.97F
NEWBURGH       MOSUNNY   81  72  74 SW6       30.01F
MONTGOMERY     MOSUNNY   83  72  69 VRB5      29.99S
WHITE PLAINS   SUNNY     84  66  54 W3        29.99S
ISLIP          CLOUDY    86  71  60 S6        29.97F HX  91
NEW YORK CITY  PTSUNNY   86  72  62 CALM      29.97S HX  92
CENTRAL PARK   MOSUNNY   84  71  65 VRB3      30.01S
$$

NYZ005>009-017-018-044>046-055-056-201500-
CENTRAL


CITY           SKY/WX    TMP DP  RH WIND       PRES   REMARKS
FULTON         MOSUNNY   76  67  73 SW6       30.00S
SYRACUSE       PTSUNNY   76  67  73 W9        30.00S
ROME           PTSUNNY   75  68  78 W6        30.00F
ELMIRA         SUNNY     78  69  73 SW7       30.03S
BINGHAMTON     SUNNY     75  67  76 SW6       30.05S
$$

NYZ026>034-041>043-087-201500-
NORTH


CITY           SKY/WX    TMP DP  RH WIND       PRES   REMARKS
WATERTOWN      MOSUNNY   75  68  78 W10       29.97F
FORT DRUM      NOT AVBL
OGDENSBURG     FAIR      78  69  73 SW10      29.95S
MASSENA        MOSUNNY   76  70  82 S7        29.95F
SARANAC LAKE   SUNNY     74  67  78 SW10      29.99F
PLATTSBURGH    SUNNY     77  67  71 SE8       29.93F
$$

NYZ001>004-010>016-019>021-085-201500-
WEST


CITY           SKY/WX    TMP DP  RH WIND       PRES   REMARKS
NIAGARA FALLS  CLOUDY    75  63  66 S6        29.97F
BUFFALO        PTSUNNY   75  64  68 S8        29.98F
DUNKIRK        MOSUNNY   78  69  73 S7        29.98F
JAMESTOWN      MOSUNNY   75  64  69 S8        30.06S
WELLSVILLE     MOSUNNY   77  66  68 W8        30.09F
ROCHESTER      CLOUDY    76  68  76 SW6       29.99F
PENN YAN       SUNNY     78  65  63 S7        30.02F
$$

             KEY
       WCI = WIND CHILL INDEX
       VSB = VISIBILITY
       HX  = HEAT INDEX
$$




USA.gov is the U.S. government's official web portal to all federal, state and local government web resources and services.